Simultaneous Nadir Overpasses (SNOs) Predictions

Prediction of SNOs between AQUA and METOP-A Satellite Orbit:

Table of predicted SNOs for the next 14.0 days since TLE Epoch: 10/5/2018
Index Date (AQUA) Time (AQUA) Lat,Lon (AQUA) SZA (AQUA ) Date (METOP-A) Time (METOP-A) Lat,Lon (METOP-A) SZA (METOP-A ) Distance(km) Time Diff (sec)
1 10/06/2018 02:01:23 -74.01, -36.49 101.01 10/06/2018 02:00:16 -73.99, -39.07 100.96 79.08 67
2 10/06/2018 02:51:02 74.59, 129.78 79.62 10/06/2018 02:50:44 74.58, 129.75 79.61 1.49 18
3 10/06/2018 03:40:29 -74.67, -62.78 100.29 10/06/2018 03:41:24 -74.65, -62.74 100.32 2.89 55
4 10/08/2018 21:35:39 -74.05, 29.87 99.90 10/08/2018 21:34:32 -74.00, 27.36 99.88 76.82 67
5 10/08/2018 22:25:17 74.58,-163.76 80.68 10/08/2018 22:25:00 74.59,-163.82 80.69 1.84 17
6 10/08/2018 23:14:44 -74.66, 3.69 99.23 10/08/2018 23:15:40 -74.66, 3.69 99.24 0.22 56
7 10/11/2018 17:09:54 -74.09, 96.21 98.79 10/11/2018 17:08:46 -74.06, 93.91 98.77 70.32 68
8 10/11/2018 17:59:31 74.58, -97.32 81.74 10/11/2018 17:59:15 74.60, -97.40 81.76 2.78 16
9 10/11/2018 18:48:58 -74.65, 70.16 98.18 10/11/2018 18:49:55 -74.67, 70.12 98.17 2.55 57
10 10/14/2018 12:44:10 -74.13, 162.54 97.70 10/14/2018 12:43:02 -74.07, 160.33 97.71 67.80 68
11 10/14/2018 13:33:46 74.58, -30.89 82.79 10/14/2018 13:33:31 74.60, -30.98 82.81 3.16 15
12 10/14/2018 14:23:14 -74.69, 136.48 97.09 10/14/2018 14:24:11 -74.67, 136.54 97.11 2.70 57
13 10/17/2018 08:18:26 -74.19,-131.14 96.61 10/17/2018 08:17:17 -74.12,-133.13 96.63 60.93 69
14 10/17/2018 09:08:01 74.59, 35.52 83.83 10/17/2018 09:07:47 74.60, 35.43 83.85 2.95 14
15 10/17/2018 09:57:29 -74.69,-157.08 96.06 10/17/2018 09:58:27 -74.68,-157.04 96.07 1.91 58




NCC Satellite Simultaneous Nadir Overpasses (SNOs) Prediction Service
